Chanute, KS

6:58 AM CDT on July 23, 2017 (GMT -0500)
Chanute Martin Johnson

Weather History for KCNU - January, 2014

Change the Weather History Date:

Saturday, January 4, 2014

  Actual Average Record
Temperature  
Mean Temperature 34 °F 32 °F  
Max Temperature 47 °F 42 °F 64 °F (1955)
Min Temperature 20 °F 23 °F -16 °F (1947)
Degree Days  
Heating Degree Days 31 33  
Month to date heating degree days 160 132  
Since 1 July heating degree days 2113 1925  
Cooling Degree Days 0 0  
Month to date cooling degree days 0 0  
Year to date cooling degree days 0 0  
Moisture  
Dew Point 24 °F    
Average Humidity 71    
Maximum Humidity 88    
Minimum Humidity 53    
Precipitation  
Precipitation 0.00 in 0.04 in 1.87 in (2005)
Month to date precipitation T 0.16  
Year to date precipitation T 0.16  
Sea Level Pressure  
Sea Level Pressure 29.88 in    
Wind  
Wind Speed 14 mph (ESE)    
Max Wind Speed 26 mph    
Max Gust Speed 34 mph    
Visibility 10 miles    
Events      
T = Trace of Precipitation, MM = Missing Value Source: NWS Daily Summary

Daily Weather History Graph

Daily Weather History Graph

Search for Another Location

Airport or City:

Trip Planner

Search our weather history database for the weather conditions in past years. The results will help you decide how hot, cold, wet, or windy it might be!

Date:

Astronomy

Jan. 04, 2014 Rise Set
Actual Time 7:37 AM CST 5:16 PM CST
Civil Twilight 7:08 AM CST 5:45 PM CST
Nautical Twilight 6:35 AM CST 6:18 PM CST
Astronomical Twilight 6:03 AM CST 6:50 PM CST
Moon 9:48 AM CST (1/4) 9:32 PM CST (1/4)
Length of Visible Light 10h 37m
Length of Day
9h 39m
Waxing Crescent, 15% of the Moon is Illuminated
Jan 4
Waxing Crescent
Jan 7
First Quarter
Jan 15
Full
Jan 23
Last Quarter
Jan 30
New

Hourly Weather History & Observations

Time (CST) Temp. Windchill Dew Point Humidity Pressure Visibility Wind Dir Wind Speed Gust Speed Precip Events Conditions
12:52 AM 35.1 °F 22.7 °F 21.9 °F 59% 29.81 in 10.0 mi South 25.3 mph 32.2 mph N/A   Clear
1:52 AM 35.1 °F 24.5 °F 21.9 °F 59% 29.80 in 10.0 mi South 18.4 mph 29.9 mph N/A   Clear
2:52 AM 35.1 °F 23.8 °F 23.0 °F 61% 29.77 in 10.0 mi South 20.7 mph 31.1 mph N/A   Clear
3:52 AM 35.1 °F 24.5 °F 23.0 °F 61% 29.78 in 10.0 mi South 18.4 mph - N/A   Clear
4:52 AM 35.1 °F 25.9 °F 23.0 °F 61% 29.79 in 10.0 mi South 13.8 mph - N/A   Clear
5:52 AM 34.0 °F 24.6 °F 24.1 °F 67% 29.80 in 10.0 mi South 13.8 mph - N/A   Clear
6:52 AM 34.0 °F 25.0 °F 24.1 °F 67% 29.80 in 10.0 mi South 12.7 mph - N/A   Clear
7:52 AM 33.1 °F 24.9 °F 25.0 °F 72% 29.81 in 10.0 mi SSE 10.4 mph - N/A   Clear
8:52 AM 36.0 °F 29.0 °F 26.1 °F 67% 29.83 in 10.0 mi SSE 9.2 mph - N/A   Clear
9:52 AM 39.9 °F 31.4 °F 30.0 °F 68% 29.83 in 10.0 mi South 16.1 mph - N/A   Clear
10:52 AM 43.0 °F 36.8 °F 32.0 °F 65% 29.84 in 10.0 mi South 11.5 mph - N/A   Clear
11:52 AM 45.0 °F 39.3 °F 33.1 °F 63% 29.82 in 10.0 mi SSW 11.5 mph - N/A   Clear
12:52 PM 45.0 °F 41.8 °F 32.0 °F 60% 29.81 in 10.0 mi WSW 5.8 mph - N/A   Scattered Clouds
1:52 PM 46.0 °F - 30.9 °F 56% 29.80 in 10.0 mi Calm Calm - N/A   Mostly Cloudy
2:52 PM 45.0 °F 41.2 °F 30.9 °F 58% 29.81 in 10.0 mi North 6.9 mph - N/A   Overcast
3:52 PM 43.0 °F 37.2 °F 30.0 °F 60% 29.82 in 10.0 mi NNE 10.4 mph - N/A   Overcast
4:52 PM 32.0 °F 19.8 °F 25.0 °F 75% 29.91 in 9.0 mi North 20.7 mph 31.1 mph N/A   Overcast
5:52 PM 30.0 °F 19.1 °F 23.0 °F 75% 29.94 in 10.0 mi North 15.0 mph 26.5 mph N/A   Overcast
6:52 PM 28.0 °F 15.7 °F 21.0 °F 75% 29.98 in 10.0 mi North 17.3 mph 24.2 mph N/A   Overcast
7:52 PM 25.0 °F 11.3 °F 19.0 °F 78% 30.01 in 10.0 mi North 18.4 mph 24.2 mph N/A   Overcast
8:15 PM 25.0 °F 12.6 °F 19.9 °F 81% 29.99 in 8.0 mi North 15.0 mph 24.2 mph N/A   Overcast
8:52 PM 23.0 °F 8.7 °F 19.0 °F 85% 30.03 in 8.0 mi North 18.4 mph 26.5 mph N/A   Overcast
9:52 PM 21.9 °F 7.8 °F 18.0 °F 85% 30.00 in 8.0 mi North 17.3 mph 29.9 mph N/A   Overcast
10:52 PM 21.0 °F 4.6 °F 17.1 °F 85% 30.01 in 10.0 mi North 23.0 mph 29.9 mph N/A   Overcast
11:50 PM 19.4 °F 5.5 °F 15.8 °F 86% 29.97 in 10.0 mi North 15.0 mph 24.2 mph N/A   Overcast
11:52 PM 19.9 °F 7.3 °F 16.0 °F 85% 29.99 in 10.0 mi North 12.7 mph 24.2 mph N/A   Overcast